Current weather by "City, St" or "zip code"  
 

Current Conditions: GRAFTON, ND

Partly Cloudy


28.0 F

Last Updated on Oct 29 2020, 7:15 pm CDT
Humidity: 74%
Wind Speed: SE 8.1 mph
Barometer 30.11 in
Dewpoint: 21.2 F
Visibility: 7.00 mi
Precip: --
Heat Index: NA
Wind Chill: 20 F
Current conditions at:

GRAFTON, ND (KGAF)

Lat: 48.4 Lon: 97.37

Local Radar Image active severe weather and emergency alerts image image weather storm and storm spotter reports image weather observation monitoring service image
Local
Radar
Active
Alerts
Storm Reports Obs
Monitoring

Sign-up For Email & Text Message Weather Alert Notification Services



Advertise Here

Observation History for GRAFTON, ND


Time Wind
(mph)
Vis
(mi)
Weather Precip (in) Temperature (F) Relative
Humidity
Wind
Chill
(F)
Heat
Index
(F)
Pressure
Air Dwpt altimeter
(in)
sea level
(mb)
Rmks
7:15 pm CDT SE 8.1 7.00 Partly Cloudy -- 28.0 21.2 74% 20 NA 30.11 M
6:15 pm CDT SE 11.5 9.00 Overcast -- 28.0 19.4 69% 18 NA 30.11 M
5:15 pm CDT SE 11.5 9.00 Overcast -- 28.0 17.6 64% 18 NA 30.11 M
4:15 pm CDT S 13.8 9.00 Overcast -- 30.0 17.6 59% 19 NA 30.11 M
3:55 pm CDT S 12.7 9.00 Overcast -- 30.0 17.6 59% 20 NA 30.11 M
3:15 pm CDT S 10.4 9.00 Overcast -- 28.0 17.6 64% 19 NA 30.12 M
2:15 pm CDT SE 12.7 G 18.4 9.00 Overcast -- 28.0 17.6 64% 17 NA 30.14 M
1:55 pm CDT SE 13.8 9.00 Overcast -- 28.0 17.6 64% 17 NA 30.15 M
1:15 pm CDT SE 12.7 9.00 Overcast -- 27.0 15.8 64% 16 NA 30.18 M
10:35 am CDT S 12.7 8.00 Mostly Cloudy -- 25.0 15.8 69% 14 NA 30.21 M
10:15 am CDT SE 10.4 8.00 Mostly Cloudy -- 25.0 17.6 74% 15 NA 30.21 M
9:55 am CDT SE 9.2 9.00 Overcast -- 25.0 17.6 74% 16 NA 30.22 M
9:15 am CDT S 8.1 9.00 Overcast -- 25.0 17.6 74% 16 NA 30.22 M
8:55 am CDT S 6.9 8.00 Overcast -- 25.0 17.6 74% 17 NA 30.22 M
8:15 am CDT S 6.9 10.00 Overcast -- 23.0 17.6 80% 15 NA 30.23 M
7:15 am CDT SW 4.6 10.00 Overcast -- 23.0 19.4 86% 17 NA 30.23 M
6:15 am CDT S 4.6 10.00 Overcast -- 23.0 19.4 86% 17 NA 30.22 M
5:15 am CDT S 4.6 10.00 Overcast -- 21.0 19.4 93% 15 NA 30.23 M
4:15 am CDT S 3.5 10.00 Overcast -- 23.0 21.2 93% NA NA 30.24 M
3:15 am CDT SE 3.5 10.00 Overcast -- 25.0 21.2 86% NA NA 30.25 M
1:35 am CDT N 0.0 10.00 Overcast -- 27.0 21.2 80% NA NA 30.25 M
1:15 am CDT N 0.0 10.00 Overcast -- 27.0 23.0 86% NA NA 30.25 M
12:55 am CDT E 4.6 10.00 NULL -- 27.0 23.0 86% 22 NA 30.25 M
12:15 am CDT N 0.0 10.00 Overcast -- 27.0 23.0 86% NA NA 30.25 M

Regional Weather Observation


GRAFTON, ND (KGAF)

Partly Cloudy
28.0 F

Walhalla Municipal Airport, ND (K96D)

Overcast
28.0 F

Hallock Municipal Airport, MN (KHCO)

Overcast
28.0 F

Langdon, ND (KD55)

Overcast
32.0 F

Grand Forks Air Force Base, ND (KRDR)

Overcast
29.0 F

Grand Forks, Grand Forks International Airport, ND (KGFK)

Overcast
30.0 F